Simultaneous Nadir Overpasses (SNOs) Predictions

Prediction of SNOs between LANDSAT-8 and METOP-A Satellite Orbit:

Table of predicted SNOs for the next 14.0 days since TLE Epoch: 4/6/2017
Index Date (LANDSAT-8) Time (LANDSAT-8) Lat,Lon (LANDSAT-8) SZA (LANDSAT-8 ) Date (METOP-A) Time (METOP-A) Lat,Lon (METOP-A) SZA (METOP-A ) Distance(km) Time Diff (sec)
1 04/08/2017 13:04:40 81.15, 23.53 75.75 04/08/2017 13:04:07 81.15, 23.72 75.76 3.25 33
2 04/08/2017 13:54:06 -81.16,-168.54 104.22 04/08/2017 13:54:47 -81.17,-168.48 104.20 1.04 41
3 04/11/2017 08:38:54 81.14, 89.87 74.72 04/11/2017 08:38:30 81.14, 89.73 74.70 2.38 24
4 04/11/2017 09:28:20 -81.16,-102.18 105.25 04/11/2017 09:29:09 -81.17,-102.06 105.21 2.09 49
5 04/14/2017 04:13:06 81.15, 156.53 73.76 04/14/2017 04:12:50 81.15, 156.48 73.74 1.09 16
6 04/14/2017 05:02:32 -81.18, -35.48 106.21 04/14/2017 05:03:30 -81.17, -35.66 106.21 3.22 58
7 04/16/2017 23:47:20 81.14,-137.21 72.75 04/16/2017 23:47:12 81.15,-137.17 72.75 0.84 8
8 04/17/2017 00:36:46 -81.17, 30.80 107.21 04/17/2017 00:37:52 -81.17, 30.72 107.19 1.45 66
9 04/19/2017 18:32:08 -81.13, 121.39 108.23 04/19/2017 18:30:55 -81.13, 121.45 108.26 0.92 73
10 04/19/2017 19:21:33 81.15, -70.62 71.81 04/19/2017 19:21:33 81.16, -70.45 71.83 2.93 0




NCC Satellite Simultaneous Nadir Overpasses (SNOs) Prediction Service
